Skip Navigation Links
NOAA logo - Click to go to the NOAA homepage
NOAA's National Weather Service
Alaska Aviation Weather Unit
  NWS logo - Click to go to the NWS homepage
Left Navbar Graphic     10 AKDT = 18 GMT

   
NOAA is celebrating 200 years of science, service, and stewardship. Visit the NOAA 200th celebration Web site to learn more.
USA.gov is the U.S. Government's official Web portal to all Federal, state and local government Web resources and services.
Facebook
NWS on Facebook

Important Change Regarding the AAWU Web Presence

 

Over the last several months, the AAWU has been working to navigate its webpages to a nationally supported server. Security, as well as other needs, have necessitated the change.  We have been given an extension for the site changeover while we diligently work at addressing feedback received. As of July 14, 2017, aawu.arh.noaa.gov will be discontinued. The new AAWU web address is weather.gov/aawu. It is now live and will run in-parallel with the old site until it is discontinued on July 14, 2017. Please continue to send any feedback or questions regarding the new webpages to nws.ar.aawu.webauthors@noaa.gov.  Thank you for your patience during this time of transition.
AAWU Home :: Display TAF Add Bookmark
TAF PAEN 261738Z 2618/2718  02007KT P6SM FEW050
     FM262100 02014KT P6SM FEW060 BKN200
     FM270400 01006KT P6SM BKN060
     FM271400 02012KT P6SM VCSH SCT035 OVC050=

4585
FTAK31 PANC 261738
TAFADQ
TAF
METAR PAEN 261253Z AUTO 05004KT 10SM OVC060 03/03 A2975=

PAEN 261327Z AUTO 03006KT 10SM SCT008 OVC060 04/04 A2974=

METAR PAEN 261353Z AUTO 36004KT 10SM OVC060 04/04 A2974=

PAEN 261448Z 04005KT 10SM SCT008 04/04 A2973=

SPECI PAEN 261448Z 04005KT 10SM SCT008 04/04 A2973 RMK AO2=

METAR PAEN 261453Z 01004KT 10SM SCT008 04/04 A2972=

METAR PAEN 261553Z 02007KT 10SM CLR 04/04 A2972=

METAR PAEN 261653Z 02007KT 10SM CLR 06/06 A2971=

METAR PAEN 261753Z 03011KT 10SM CLR 08/07 A2969=


NOAA's National Weather Service
Alaska Aviation Weather Unit
6930 Sand Lake Road
Anchorage, AK 99502-1845
Disclaimer
Credits
Glossary
Privacy Policy
About Us
Career Opportunities
Contact AAWU Internet Services Site last modified: April, 17th 2012